• In Romania
  • List of Countries
  • For 7 days
  • Water Temperature
  • Satellite Maps
  • Weather Map
  • Weather Widgets
  • user-avatar
    Login

    Hourly Weather Wiktoria

    Today, 22 September, Friday

    Time Temperature Precipitation Wind Pressure Humidity
    00:00 +12°C° 0 mm 2 mps 746 mmHg 64%
    01:00 +10°C° 0 mm 2 mps 746 mmHg 65%
    02:00 +9°C° 0 mm 2 mps 746 mmHg 66%
    03:00 +9°C° 0 mm 2 mps 746 mmHg 67%
    04:00 +8°C° 0 mm 2 mps 745 mmHg 68%
    05:00 +8°C° 0 mm 2 mps 745 mmHg 69%
    06:00 +8°C° 0 mm 2 mps 746 mmHg 70%
    07:00 +8°C° 0 mm 2 mps 746 mmHg 71%
    08:00 +11°C° 0 mm 3 mps 746 mmHg 67%
    09:00 +14°C° 0 mm 3 mps 746 mmHg 64%
    10:00 +17°C° 0 mm 4 mps 746 mmHg 58%
    11:00 +19°C° 0 mm 4 mps 745 mmHg 57%
    12:00 +21°C° 0 mm 4 mps 745 mmHg 57%
    13:00 +22°C° 0 mm 4 mps 745 mmHg 56%
    14:00 +24°C° 0 mm 3 mps 744 mmHg 58%
    15:00 +25°C° 0 mm 3 mps 744 mmHg 61%
    16:00 +25°C° 0 mm 2 mps 743 mmHg 64%
    17:00 +23°C° 0 mm 2 mps 743 mmHg 68%
    18:00 +19°C° 0 mm 3 mps 743 mmHg 73%
    19:00 +17°C° 0 mm 3 mps 743 mmHg 77%
    20:00 +16°C° 0 mm 3 mps 743 mmHg 77%
    21:00 +14°C° 0 mm 3 mps 743 mmHg 76%
    22:00 +13°C° 0 mm 3 mps 743 mmHg 76%
    23:00 +13°C° 0 mm 3 mps 742 mmHg 74%

    Tomorrow, 23 September, Saturday

    Time Temperature Precipitation Wind Pressure Humidity
    00:00 +12°C° 0 mm 3 mps 742 mmHg 73%
    01:00 +12°C° 0 mm 3 mps 742 mmHg 71%
    02:00 +11°C° 0 mm 3 mps 741 mmHg 68%
    03:00 +11°C° 0 mm 3 mps 741 mmHg 65%
    04:00 +11°C° 0 mm 4 mps 741 mmHg 61%
    05:00 +11°C° 0 mm 4 mps 740 mmHg 58%
    06:00 +12°C° 0 mm 5 mps 740 mmHg 56%
    07:00 +12°C° 0 mm 5 mps 740 mmHg 53%
    08:00 +15°C° 0 mm 6 mps 739 mmHg 53%
    09:00 +17°C° 0 mm 6 mps 738 mmHg 53%
    10:00 +20°C° 0 mm 7 mps 737 mmHg 53%
    11:00 +22°C° 0 mm 7 mps 736 mmHg 55%
    12:00 +23°C° 0 mm 6 mps 735 mmHg 56%
    13:00 +26°C° 0 mm 6 mps 734 mmHg 57%
    14:00 +26°C° 0 mm 6 mps 734 mmHg 57%
    15:00 +26°C° 0 mm 6 mps 734 mmHg 58%
    16:00 +26°C° 0 mm 6 mps 733 mmHg 58%
    17:00 +22°C° 0 mm 6 mps 734 mmHg 62%
    18:00 +20°C° 0 mm 6 mps 735 mmHg 66%
    19:00 +17°C° 0 mm 5 mps 736 mmHg 69%
    20:00 +15°C° 0 mm 5 mps 737 mmHg 70%
    21:00 +14°C° 0 mm 4 mps 738 mmHg 72%
    22:00 +12°C° 0 mm 3 mps 739 mmHg 73%
    23:00 +12°C° 0 mm 3 mps 739 mmHg 73%

    Day after tomorrow, 24 September, Sunday

    Time Temperature Precipitation Wind Pressure Humidity
    00:00 +11°C° 0 mm 3 mps 739 mmHg 74%
    01:00 +12°C° 0 mm 2 mps 739 mmHg 75%
    02:00 +10°C° 0 mm 3 mps 739 mmHg 78%
    03:00 +9°C° 0 mm 3 mps 739 mmHg 81%
    04:00 +9°C° 0 mm 3 mps 739 mmHg 84%
    05:00 +9°C° 0 mm 3 mps 739 mmHg 84%
    06:00 +8°C° 0 mm 4 mps 739 mmHg 84%
    07:00 +8°C° 0 mm 4 mps 740 mmHg 84%
    08:00 +10°C° 0.1 mm 5 mps 740 mmHg 82%
    09:00 +11°C° 0.1 mm 6 mps 740 mmHg 80%
    10:00 +13°C° 0.1 mm 6 mps 741 mmHg 78%
    11:00 +14°C° 0.2 mm 7 mps 740 mmHg 73%
    12:00 +15°C° 0.2 mm 7 mps 740 mmHg 68%
    13:00 +16°C° 0.2 mm 8 mps 740 mmHg 63%
    14:00 +16°C° 0.2 mm 7 mps 739 mmHg 64%
    15:00 +16°C° 0.2 mm 7 mps 739 mmHg 65%
    16:00 +16°C° 0.2 mm 6 mps 739 mmHg 65%
    17:00 +14°C° 0 mm 6 mps 739 mmHg 65%
    18:00 +13°C° 0 mm 5 mps 740 mmHg 65%
    19:00 +12°C° 0 mm 5 mps 740 mmHg 65%
    20:00 +11°C° 0 mm 4 mps 741 mmHg 66%
    21:00 +11°C° 0 mm 4 mps 742 mmHg 67%
    22:00 +10°C° 0 mm 4 mps 742 mmHg 68%
    23:00 +10°C° 0 mm 4 mps 742 mmHg 71%

    25 September, Monday

    Time Temperature Precipitation Wind Pressure Humidity
    00:00 +8°C° 0 mm 4 mps 743 mmHg 73%
    01:00 +7°C° 0 mm 4 mps 743 mmHg 76%
    02:00 +8°C° 0 mm 3 mps 743 mmHg 79%
    03:00 +7°C° 0 mm 3 mps 743 mmHg 82%
    04:00 +5°C° 0 mm 3 mps 743 mmHg 85%
    05:00 +7°C° 0 mm 3 mps 743 mmHg 86%
    06:00 +7°C° 0 mm 3 mps 743 mmHg 87%
    07:00 +7°C° 0 mm 3 mps 744 mmHg 88%
    08:00 +7°C° 0 mm 4 mps 744 mmHg 84%
    09:00 +10°C° 0 mm 4 mps 745 mmHg 80%
    10:00 +12°C° 0 mm 5 mps 745 mmHg 76%
    11:00 +13°C° 0.1 mm 6 mps 745 mmHg 74%
    12:00 +13°C° 0.1 mm 6 mps 745 mmHg 72%
    13:00 +14°C° 0.1 mm 6 mps 745 mmHg 69%
    14:00 +14°C° 0.2 mm 6 mps 745 mmHg 71%
    15:00 +14°C° 0.2 mm 6 mps 745 mmHg 73%
    16:00 +14°C° 0.2 mm 5 mps 744 mmHg 75%
    17:00 +13°C° 0.3 mm 4 mps 745 mmHg 80%
    18:00 +11°C° 0.3 mm 3 mps 746 mmHg 85%
    19:00 +9°C° 0.3 mm 2 mps 746 mmHg 91%
    20:00 +9°C° 0 mm 2 mps 747 mmHg 92%
    21:00 +8°C° 0 mm 2 mps 747 mmHg 93%
    22:00 +7°C° 0 mm 2 mps 748 mmHg 95%
    23:00 +6°C° 0 mm 2 mps 748 mmHg 94%

    26 September, Tuesday

    Time Temperature Precipitation Wind Pressure Humidity
    00:00 +6°C° 0 mm 2 mps 748 mmHg 94%
    01:00 +5°C° 0 mm 2 mps 749 mmHg 94%
    02:00 +4°C° 0 mm 2 mps 749 mmHg 94%
    03:00 +5°C° 0 mm 1 mps 749 mmHg 94%
    04:00 +4°C° 0 mm 1 mps 749 mmHg 94%
    05:00 +4°C° 0 mm 1 mps 749 mmHg 94%
    06:00 +5°C° 0 mm 1 mps 749 mmHg 94%
    07:00 +5°C° 0 mm 1 mps 750 mmHg 94%
    08:00 +7°C° 0 mm 1 mps 750 mmHg 85%
    09:00 +10°C° 0 mm 1 mps 750 mmHg 77%
    10:00 +12°C° 0 mm 1 mps 750 mmHg 68%
    11:00 +13°C° 0 mm 2 mps 750 mmHg 63%
    12:00 +14°C° 0 mm 2 mps 749 mmHg 58%
    13:00 +14°C° 0 mm 3 mps 749 mmHg 53%
    14:00 +14°C° 0 mm 3 mps 748 mmHg 54%
    15:00 +14°C° 0 mm 3 mps 748 mmHg 55%
    16:00 +14°C° 0 mm 3 mps 748 mmHg 56%
    17:00 +14°C° 0 mm 2 mps 748 mmHg 60%
    18:00 +13°C° 0 mm 2 mps 749 mmHg 63%
    19:00 +11°C° 0 mm 1 mps 749 mmHg 67%
    20:00 +10°C° 0 mm 1 mps 749 mmHg 69%
    21:00 +10°C° 0 mm 1 mps 750 mmHg 72%
    22:00 +9°C° 0 mm 1 mps 750 mmHg 74%
    23:00 +9°C° 0 mm 1 mps 750 mmHg 76%

    27 September, Wednesday

    Time Temperature Precipitation Wind Pressure Humidity
    00:00 +7°C° 0 mm 2 mps 749 mmHg 77%
    01:00 +7°C° 0 mm 2 mps 749 mmHg 78%
    02:00 +6°C° 0 mm 2 mps 749 mmHg 81%
    03:00 +6°C° 0 mm 2 mps 748 mmHg 85%
    04:00 +5°C° 0 mm 2 mps 748 mmHg 88%
    05:00 +6°C° 0 mm 2 mps 748 mmHg 84%
    06:00 +7°C° 0 mm 3 mps 748 mmHg 80%
    07:00 +7°C° 0 mm 3 mps 748 mmHg 77%
    08:00 +9°C° 0 mm 3 mps 748 mmHg 73%
    09:00 +11°C° 0 mm 3 mps 747 mmHg 69%
    10:00 +13°C° 0 mm 4 mps 747 mmHg 65%
    11:00 +15°C° 0 mm 4 mps 746 mmHg 62%
    12:00 +18°C° 0 mm 4 mps 745 mmHg 59%
    13:00 +20°C° 0 mm 5 mps 744 mmHg 56%
    14:00 +20°C° 0 mm 4 mps 743 mmHg 59%
    15:00 +21°C° 0 mm 4 mps 743 mmHg 62%
    16:00 +21°C° 0 mm 4 mps 742 mmHg 65%
    17:00 +20°C° 0 mm 4 mps 742 mmHg 63%
    18:00 +19°C° 0 mm 4 mps 742 mmHg 60%
    19:00 +19°C° 0 mm 4 mps 742 mmHg 57%
    20:00 +19°C° 0 mm 5 mps 742 mmHg 55%
    21:00 +19°C° 0 mm 5 mps 742 mmHg 54%
    22:00 +19°C° 0 mm 5 mps 743 mmHg 53%
    23:00 +17°C° 0 mm 5 mps 743 mmHg 56%
    Show more